Terug naar catalogus

SL-12 DEB

LostHEO
NORAD 29027·DEBRIS·🇷🇺 Russia

Gelanceerd Jul 30, 1992 vanaf Baikonur Cosmodrome

Loading…

Volgende Passages (komende 24 uur)

TLE

VerouderdSource: Space-Track

Epoch: Oct 8, 2010, 03:39 UTC

1 29027U 92047AP  10281.15271841 -.00000051  00000-0  10000-3 0  9994
2 29027 065.8033 359.5104 4132346 029.8299 313.2792 05.15125279116839

Volg SL-12 DEB in realtime met AllMySat

Download on the App Store